Find Starlink 37407

NORAD ID: 69534 Int'l Des: 2026-133 Owner: SPXS Country: US Constellation: starlink operational
LEOCIRCULAR

Current View

Loading 3D Globe...

About Starlink 37407

Starlink 37407 (NORAD 69534) is a starlink constellation satellite (v2 mini) launched Jun 11, 2026 by SPXS of US. It operates in LEO, CIRCULAR orbit with a mass of 575.00 kg.

Upcoming Passes

Passes for default location (London). Set your location on the main map for personalized predictions.

Altitude History

Loading altitude history...

Two-Line Element Set

1 69534U 26133AC 26208.15734340 .00026339 00000-0 80855-3 0 9999
2 69534 53.1602 128.6843 0001308 91.2361 268.8792 15.33580873 8252
Epoch: Jul 27, 2026 • Age: 27 hours

Current Status

Altitude 470.1 km
Apogee / Perigee N/A
Velocity 7.64 km/s
Sub-Earth Point 50.79°N, 170.78°W
Launch Date Jun 11, 2026
Age 0.1 years
Type internet

Technical Details

Classification Payload
Mass 575.00 kg
Dry Mass 530.00 kg
Total Mass 575.00 kg
Length 0.30 m
Diameter 4.10 m
Span 29.00 m
Shape Box + pan
Manufacturer SPXS
Bus Type Starlink V2MO
Phase Status In Orbit
Owner/State SPXS/US

Most Searched